User: anonymous
Location: Unspecified
(0.0000°N, 0.0000°E)
Time: 10:07:03
(UTC+02:00)
Language:

Coronas F rocket - Orbit

View from above orbital plane
View from above orbital plane
View from above satellite
View from above satellite

Ground track
Ground track

The orbit data is extracted from the following two-line orbital elements,

1 26874U 01032B   14106.87651052  .00015658  00000-0  26792-3 0  6541
2 26874 082.4755 047.4863 0013285 278.8748 081.0999 15.51009223711794
Epoch (UTC): 16 April 2014 21:02:10
Eccentricity: 0.0013285
inclination: 82.4755°
perigee height: 405 km
apogee height: 423 km
right ascension of ascending node: 47.4863°
argument of perigee: 278.8748°
revolutions per day: 15.51009223
mean anomaly at epoch: 81.0999°
orbit number at epoch: 71179

The dashed part of the orbit path shows where the satellite is in the earth's shadow,  

DLR